Regional Weather Roundup
Issued by NWS

Home | Current Version | Previous Version | Graphics & Text | Print | Product List | Glossary On
Versions: 1 2 3 4 5 6 7 8 9 10 11 12 13 14 15 16 17 18 19 20 21 22 23 24 25 26 27 28 29 30 31 32 33 34 35 36 37 38 39 40 41 42 43 44 45 46 47 48 49 50
000
ASUS43 KLOT 252209
RWRIL

ILLINOIS REGIONAL WEATHER ROUNDUP
NATIONAL WEATHER SERVICE CHICAGO/ROMEOVILLE IL
500 PM CDT MON SEP 25 2017

NOTE: "FAIR" INDICATES FEW OR NO CLOUDS BELOW 12,000 FEET WITH NO
SIGNIFICANT WEATHER AND/OR OBSTRUCTIONS TO VISIBILITY.

* THESE STATIONS ARE NOT UNDER NWS QUALITY CONTROL. THEY ALSO MAY NOT
  REPORT WEATHER SUCH AS PRECIPITATION OR FOG.

ILZ001-002-007-009-015-016-024-252300-
NORTHWEST ILLINOIS

CITY           SKY/WX    TMP DP  RH WIND       PRES   REMARKS
MOLINE         MOSUNNY   86  62  44 SE9       29.87S HX  86
STERLING*      SUNNY     91  60  35 VRB6      29.89F HX  90
SAVANNA*       SUNNY     90  62  38 S14       29.88S HX  90
$$

ILZ003-004-008-010-011-017-018-252300-
NORTH CENTRAL ILLINOIS

CITY           SKY/WX    TMP DP  RH WIND       PRES   REMARKS
ROCKFORD       MOSUNNY   90  57  32 SE10      29.91S HX  88
FREEPORT*      SUNNY     89  57  34 S10       29.91F HX  87
ROCHELLE*      MOSUNNY   88  58  36 SE6       29.91S HX  87
DE KALB*       SUNNY     89  58  35 SE9       29.93S HX  88
PERU*          MOSUNNY   88  59  36 S5        29.90F HX  87
$$

ILZ005-006-012>014-019>023-252300-
NORTHEAST ILLINOIS

CITY           SKY/WX    TMP DP  RH WIND       PRES   REMARKS
CHICAGO-OHARE  MOSUNNY   89  55  31 E15       29.91S HX  87
CHICAGO-MIDWAY MOSUNNY   88  56  33 E16       29.92S HX  86
AURORA         SUNNY     89  59  36 SE10      29.92S HX  88
LANSING*       SUNNY     88  60  39 SE7       29.94R HX  87
JOLIET*        SUNNY     90  60  37 SE6       29.92R HX  89
WAUKEGAN       SUNNY     82  64  54 SE12      29.93S HX  83
DUPAGE AIRPORT SUNNY     90  57  32 S9        29.91S HX  88
KANKAKEE*      SUNNY     88  58  36 SE9       29.93S HX  87
WHEELING       SUNNY     88  58  36 SE10      29.93S HX  87
MORRIS*        MOSUNNY   90  58  34 SE8       29.91S HX  89
ROMEOVILLE*    SUNNY     89  59  36 SE10      29.92S HX  88
NORTHERLY ISL    N/A     79  64  60 E10         N/A  HX  81
$$

LMZ740>746-252300-
SOUTHERN LAKE MICHIGAN

STATION/POSITION SKY/WX   TEMP    WIND        PRES    VSBY  WAVE
                          AIR SEA DIR/SP/G                  HT/PER
                          (F)     (DEG/KT/KT) (MB)    (MI)  (FT/S)
SOUTHERN BUOY              74 71  130/  6/  6 1013.8F         1
WILMETTE HARBOR            76 72  120/ 10/ 12   N/A           1/ 2
HARRISON CRIB              80     110/ 15/ 16   N/A
BURNHAM HARBOR             79                   N/A
CALUMET HARBOR             81      50/  8/ 12 1013.0F
BURNS HARBOR               85      90/  6/ 11 1013.9F
MICHIGAN CITY              82      50/  4/  5   N/A
MICHIGAN CITY 6N           78 74   60/  4/  6   N/A           0
ST. JOSEPH                 79 75   70/  4/  4 1013.8          0
$$

ILZ025>027-034>036-040-047-049-050-058-095>099-252300-
WEST-CENTRAL ILLINOIS

CITY           SKY/WX    TMP DP  RH WIND       PRES   REMARKS
QUINCY         LGT RAIN  82  60  47 S5        29.89F HX  82
GALESBURG*     MOSUNNY   86  60  41 S6        29.90S HX  86
MACOMB*        SUNNY     89  59  36 S10       29.91S HX  88
JACKSONVILLE*  MOSUNNY   88  60  38 S8        29.89S HX  87
PITTSFIELD*    SUNNY     89  62  39 SE6       29.90F HX  90
$$

ILZ028>032-037-038-041>044-048-051>054-059>061-252300-
CENTRAL ILLINOIS

CITY           SKY/WX    TMP DP  RH WIND       PRES   REMARKS
PONTIAC        SUNNY     90  58  33 SE9       29.92S HX  89
BLOOMINGTON    MOSUNNY   87  61  41 S13       29.93F HX  87
DECATUR        SUNNY     89  59  36 S8        29.91F HX  88
PEORIA         SUNNY     90  56  31 S9        29.89F HX  88
LACON*         SUNNY     91  57  32 SW5       29.89S HX  90
LINCOLN*       SUNNY     92  61  35 S7        29.90S HX  92
SPRINGFIELD    MOSUNNY   91  61  36 SE7       29.90S HX  91
TAYLORVILLE    SUNNY     87  62  42 S3        29.92S HX  87
$$

ILZ033-039-045-046-055>057-062-063-252300-
EAST-CENTRAL ILLINOIS

CITY           SKY/WX    TMP DP  RH WIND       PRES   REMARKS
CHAMPAIGN      SUNNY     91  56  30 SE6       29.93F HX  89
RANTOUL*       MOSUNNY   91  59  33 S7        29.93S HX  90
MATTOON        SUNNY     89  61  38 S6        29.92F HX  89
PARIS*         MOSUNNY   90  61  37 SE7       29.93F HX  90
$$

ILZ079-100>102-252300-
SOUTHWEST ILLINOIS

CITY           SKY/WX    TMP DP  RH WIND       PRES   REMARKS
ALTON          MOSUNNY   88  64  45 S9        29.91S HX  89
BELLEVILLE     MOSUNNY   92  61  35 SW8       29.89F HX  91
CAHOKIA*       SUNNY     92  58  31 S7        29.89S HX  91
SPARTA*        SUNNY     89  61  39 S9        29.93S HX  88
$$

ILZ064>066-069>071-074>076-080>082-084>086-088>090-092>094-252300-
SOUTH-CENTRAL ILLINOIS

CITY           SKY/WX    TMP DP  RH WIND       PRES   REMARKS
CARBONDALE     SUNNY     87  64  46 SW7       29.92F HX  88
CAIRO*         SUNNY     87  66  49 S5        29.92F HX  89
EFFINGHAM*     SUNNY     91  61  36 SE8       29.93F HX  91
MARION         MOSUNNY   91  61  35 SE7       29.93F HX  91
MT. VERNON       N/A     91  64  40 SE6       29.92F HX  92
CENTRALIA*     SUNNY     92  62  36 SE8       29.91F HX  92
SALEM*         SUNNY     92  56  29 SE6       29.92S HX  90
METROPOLIS*    SUNNY     89  65  44 E5        29.93F HX  90
$$

ILZ067-068-072-073-078-083-087-091-252300-
SOUTHEAST ILLINOIS

CITY           SKY/WX    TMP DP  RH WIND       PRES   REMARKS
LAWRENCEVILLE  SUNNY     90  62  39 S6        29.93F HX  90
FLORA*         SUNNY     92  62  36 S5        29.92F HX  92
FAIRFIELD*     MOSUNNY   91  62  37 CALM      29.91F HX  91
HARRISBURG*    MOSUNNY   91  64  41 S9        29.92F HX  92
ROBINSON*      MOSUNNY   88  64  43 S5        29.94S HX  89
CARMI*         SUNNY     90  64  41 SE5       29.92F HX  91
$$

ABBREVIATIONS USED IN REMARKS
   TC - TEMPERATURE IN CELSIUS
  WCI - WIND CHILL INDEX
   HX - HEAT INDEX
  VSB - VISIBILITY
$$




USA.gov is the U.S. government's official web portal to all federal, state and local government web resources and services.